Oceanside, California, United States (92049)
Lat: 33.20N, Lon: 117.38W
Wx Zone: CAZ043
Local Info
Past Weather Observations for Today

NOTE: This archive is for the closest National Weather Service station to Oceanside. Information may differ from the station used for current weather conditions.

Click here for Long-term Archive

Time Weather Temperature Dewpoint Humidity Pressure Winds Precip Visibility
22:52
Clear
61°F / 16°C 50°F / 10°C 68% 29.98 in
(1015 mb)
Calm - 10SM
21:52
Clear
63°F / 17°C 52°F / 11°C 68% 29.98 in
(1015 mb)
NE 4.6 mph
(NE 7 kph)
- 10SM
20:52
Clear
63°F / 17°C 50°F / 10°C 64% 29.98 in
(1015 mb)
Calm - 10SM
19:52
Clear
70°F / 21°C 50°F / 10°C 50% 29.98 in
(1015 mb)
Calm - 10SM
18:52
Clear
73°F / 23°C 45°F / 7°C 36% 29.95 in
(1014 mb)
SSE 4.6 mph
(SSE 7 kph)
- 10SM
17:52
Clear
73°F / 23°C 55°F / 13°C 53% 29.92 in
(1013 mb)
SSW 9.2 mph
(SSW 15 kph)
- 10SM
16:52
Clear
79°F / 26°C 48°F / 9°C 34% 29.92 in
(1013 mb)
SSW 5.8 mph
(SSW 9 kph)
- 10SM
15:52
Clear
81°F / 27°C 45°F / 7°C 28% 29.92 in
(1013 mb)
SSW 8.1 mph
(SSW 13 kph)
- 10SM
14:52
Clear
82°F / 28°C 46°F / 8°C 28% 29.95 in
(1014 mb)
SSW 10.4 mph
(SSW 17 kph)
- 10SM
13:52
Clear
81°F / 27°C 48°F / 9°C 32% 29.95 in
(1014 mb)
SSW 15 mph
(SSW 24 kph)
- 10SM
12:52
Clear
81°F / 27°C 48°F / 9°C 32% 29.95 in
(1014 mb)
SSW 12.7 mph
(SSW 20 kph)
- 10SM
11:52
Clear
84°F / 29°C 46°F / 8°C 27% 29.98 in
(1015 mb)
SSW 10.4 mph
(SSW 17 kph)
- 10SM
10:52
Clear
82°F / 28°C 41°F / 5°C 23% 29.98 in
(1015 mb)
SSW 10.4 mph
(SSW 17 kph)
- 10SM
09:52
Clear
81°F / 27°C 52°F / 11°C 37% 30.01 in
(1016 mb)
SSW 8.1 mph
(SSW 13 kph)
- 9SM
08:52
Clear
77°F / 25°C 45°F / 7°C 32% 30.01 in
(1016 mb)
SSW 3.5 mph
(SSW 6 kph)
- 10SM
07:52
Clear
68°F / 20°C 48°F / 9°C 49% 30.01 in
(1016 mb)
NE 5.8 mph
(NE 9 kph)
- 10SM
06:52
Clear
61°F / 16°C 50°F / 10°C 68% 30.01 in
(1016 mb)
Calm - 10SM
05:52
Clear
54°F / 12°C 48°F / 9°C 82% 30.01 in
(1016 mb)
Calm - 8SM
04:52
Clear
55°F / 13°C 50°F / 10°C 82% 29.98 in
(1015 mb)
NE 4.6 mph
(NE 7 kph)
- 9SM
03:52
Clear
54°F / 12°C 50°F / 10°C 88% 29.98 in
(1015 mb)
NE 4.6 mph
(NE 7 kph)
- 9SM
02:52
Clear
55°F / 13°C 50°F / 10°C 82% 29.98 in
(1015 mb)
NE 3.5 mph
(NE 6 kph)
- 8SM
01:52
Clear
55°F / 13°C 52°F / 11°C 88% 29.98 in
(1015 mb)
NE 3.5 mph
(NE 6 kph)
- 9SM
00:52
Clear
59°F / 15°C 52°F / 11°C 77% 29.98 in
(1015 mb)
N 3.5 mph
(N 6 kph)
- 9SM
Time Weather Temperature Dewpoint Humidity Pressure Winds Precip Visibility


Weather for websites

WeatherForYou.com, LLC is not responsible for any damages or problems caused by this service. Current weather conditions are obtained from the closest station including government and personal stations which may have varying degrees of accuracy. Weather forecasts are derived from the NOAA NDFD. Like all things, this site belongs to Jesus Christ... He just trusts us to maintain it. If you have any questions or comments email webmaster@weatherforyou.com

Copyright © 2016, WeatherForYou.com LLC. All rights reserved.